Location: Vancouver
(49.2500°N, 123.1330°W)
Time: 14:00:08
(UTC-08:00)

ERS-2 - Visible Passes

Search period start: 25 November 2014 00:00
Search period end: 05 December 2014 00:00
Orbit: 527 x 531 km, 98.5° (Epoch: 24 November)

Date Brightness Start Highest point End Pass type
(mag) Time Alt. Az. Time Alt. Az. Time Alt. Az.
25 Nov 4.3 06:56:29 10° ESE 06:59:43 27° ENE 07:02:59 10° N visible
26 Nov 4.6 06:46:10 10° ESE 06:49:06 21° ENE 06:52:02 10° NNE visible
27 Nov 4.9 06:35:58 10° E 06:38:28 17° ENE 06:40:59 10° NNE visible
28 Nov 5.0 06:25:56 10° E 06:27:51 14° ENE 06:29:46 10° NNE visible
29 Nov 5.3 06:16:20 10° ENE 06:17:13 11° NE 06:18:05 10° NE visible
03 Dec 4.1 07:04:18 10° SE 07:07:37 29° ENE 07:10:57 10° N visible
04 Dec 4.5 06:53:47 10° ESE 06:56:49 23° ENE 06:59:51 10° N visible
